Flag for Austria Weather past 2 weeks in Freistadt, Upper Austria, Austria

Now
59 °F

Passing clouds.


Feels Like: 58 °F
Forecast: 42 / 69 °F
Wind: 6 mph from West

Location: Linz / Hoersching-Flughafen

Current Time: May 28, 2015 at 12:52:09 PM

Latest Report: May 28, 2015 at 12:20 PM


Visibility: N/A

Pressure: 30.09 "Hg

Humidity: 51%

Dew point: 41 °F

Location of FreistadtLocation

Historic Weather in Freistadt — Graph

°F

Freistadt temperature yesterday

Maximum temperature yesterday: 57 °F (at 3:20 PM)
Minimum temperature yesterday: 46 °F (at 4:20 AM)
Average temperature yesterday: 52 °F

Past Weeks' High & Low Weather Summary

 TemperatureHumidityPressure
High75 °F (May 18, 4:20 PM)100% (May 14, 4:50 AM)30.27 "Hg (May 14, 4:50 AM)
Low43 °F (May 28, 5:20 AM)43% (May 16, 4:20 PM)29.71 "Hg (May 19, 3:50 AM)
Average55 °F81%30.02 "Hg
* Reported May 13 11:20 AM — May 28 11:50 AM, Freistadt, Weather by CustomWeather, © 2015

Note: Actual official high and low records may vary slightly from our data, if they occured in-between our weather recording intervals... More about our weather records

Advertising

Freistadt weather history for previous 24 hours

 ConditionsComfort  
Time TempWeatherWind HumidityBarometerVisibility
11:50 AM
Thu, May 28
59 °FPassing clouds.2 mph51%30.09 "HgN/A
11:20 AM57 °FPassing clouds.2 mph55%30.12 "HgN/A
10:50 AM57 °FPassing clouds.3 mph51%30.12 "HgN/A
10:20 AM55 °FPassing clouds.3 mph55%30.12 "HgN/A
9:50 AM54 °FScattered clouds.2 mph63%30.12 "HgN/A
9:20 AM52 °FPartly sunny.2 mph72%30.12 "HgN/A
8:50 AM50 °FPartly sunny.1 mph71%30.15 "HgN/A
8:20 AM48 °FPartly sunny.2 mph76%30.15 "HgN/A
7:50 AM48 °FPartly sunny.2 mph76%30.15 "HgN/A
7:20 AM48 °FPartly sunny.1 mph82%30.15 "HgN/A
6:50 AM46 °FPartly sunny.2 mph82%30.12 "HgN/A
6:20 AM45 °FPartly sunny.3 mph87%30.12 "HgN/A
5:50 AM45 °FPassing clouds.6 mph87%30.15 "HgN/A
5:20 AM43 °FPassing clouds.5 mph93%30.12 "HgN/A
4:50 AM45 °FPassing clouds.5 mph87%30.12 "HgN/A
4:20 AM45 °FPassing clouds.3 mph87%30.12 "HgN/A
3:50 AM46 °FPassing clouds.6 mph82%30.15 "HgN/A
3:20 AM46 °FOvercast.6 mph82%30.15 "HgN/A
2:50 AM46 °FOvercast.6 mph82%30.15 "HgN/A
2:20 AM46 °FOvercast.7 mph82%30.15 "HgN/A
1:50 AM46 °FOvercast.5 mph82%30.15 "HgN/A
1:20 AM48 °FPassing clouds.6 mph76%30.15 "HgN/A
12:50 AM48 °FPassing clouds.5 mph82%30.15 "HgN/A
12:20 AM48 °FOvercast.6 mph82%30.15 "HgN/A
11:50 PM
Wed, May 27
48 °FPassing clouds.5 mph76%30.15 "HgN/A
11:20 PM48 °FPassing clouds.5 mph76%30.18 "HgN/A
10:50 PM48 °FPassing clouds.3 mph76%30.18 "HgN/A
10:20 PM50 °FPartly cloudy.6 mph71%30.18 "HgN/A
9:50 PM50 °FPartly cloudy.8 mph67%30.18 "HgN/A
9:20 PM52 °FPartly sunny.9 mph62%30.15 "HgN/A
8:50 PM54 °FPartly sunny.9 mph58%30.15 "HgN/A
8:20 PM54 °FScattered clouds.10 mph58%30.12 "HgN/A
7:50 PM55 °FScattered clouds.12 mph59%30.12 "HgN/A
7:20 PM55 °FPartly sunny.9 mph59%30.12 "HgN/A
6:50 PM57 °FScattered clouds.15 mph51%30.12 "HgN/A
6:20 PM57 °FPartly sunny.16 mph51%30.12 "HgN/A
5:50 PM57 °FPartly sunny.12 mph55%30.12 "HgN/A
5:20 PM57 °FPartly sunny.13 mph55%30.12 "HgN/A
4:50 PM54 °FBroken clouds.14 mph67%30.15 "HgN/A
4:20 PM55 °FPartly sunny.9 mph63%30.12 "HgN/A
3:50 PM55 °FBroken clouds.15 mph59%30.15 "HgN/A
3:20 PM57 °FBroken clouds.14 mph55%30.15 "HgN/A
2:50 PM54 °FBroken clouds.14 mph63%30.15 "HgN/A
2:20 PM52 °FBroken clouds.14 mph72%30.15 "HgN/A
1:50 PM55 °FBroken clouds.15 mph63%30.15 "HgN/A
1:20 PM54 °FBroken clouds.14 mph67%30.15 "HgN/A
12:50 PM55 °FPartly sunny.13 mph63%30.15 "HgN/A
12:20 PM54 °FPartly sunny.13 mph67%30.15 "HgN/A
Weather by CustomWeather, © 2015

See weather overviewHow to use our weather pages